Conway, SC

9:28 PM EDT on September 25, 2017 (GMT -0400)
Conway-Horry County

Weather History for KHYW - December, 2012

Change the Weather History Date:

Thursday, December 27, 2012

  Actual Average Record
Temperature  
Mean Temperature 42 °F -  
Max Temperature 51 °F 54 °F 75 °F (2015)
Min Temperature 33 °F 33 °F 28 °F (2010)
Degree Days  
Heating Degree Days 23    
Moisture  
Dew Point 34 °F    
Average Humidity 77    
Maximum Humidity 100    
Minimum Humidity 50    
Precipitation  
Precipitation 0.00 in - - ()
Sea Level Pressure  
Sea Level Pressure 29.94 in    
Wind  
Wind Speed 5 mph (WSW)    
Max Wind Speed 10 mph    
Max Gust Speed 17 mph    
Visibility 7 miles    
Events      
Averages and records for this station are not official NWS values.
T = Trace of Precipitation, MM = Missing Value Source: NWS Daily Summary

Daily Weather History Graph

Daily Weather History Graph

Search for Another Location

Airport or City:

Trip Planner

Search our weather history database for the weather conditions in past years. The results will help you decide how hot, cold, wet, or windy it might be!

Date:

Astronomy

Dec. 27, 2012 Rise Set
Actual Time 7:20 AM EST 5:15 PM EST
Civil Twilight 6:52 AM EST 5:43 PM EST
Nautical Twilight 6:21 AM EST 6:14 PM EST
Astronomical Twilight 5:50 AM EST 6:44 PM EST
Moon 4:55 PM EST (12/27) 6:31 AM EST (12/27)
Length of Visible Light 10h 50m
Length of Day
9h 55m
Full, 100% of the Moon is Illuminated
Dec 27
Full
Dec 28
Full
Jan 4
Last Quarter
Jan 11
New
Jan 18
First Quarter

Hourly Weather History & Observations

Time (EST) Temp. Windchill Dew Point Humidity Pressure Visibility Wind Dir Wind Speed Gust Speed Precip Events Conditions
12:15 AM 42.8 °F 38.0 °F 32.0 °F 66% 29.76 in 7.0 mi WSW 8.1 mph - N/A   Clear
12:35 AM 41.0 °F 34.7 °F 32.0 °F 70% 29.77 in 7.0 mi West 10.4 mph 17.3 mph N/A   Clear
12:55 AM 41.0 °F 36.4 °F 32.0 °F 70% 29.78 in 7.0 mi West 6.9 mph 16.1 mph N/A   Clear
1:15 AM 41.0 °F 35.8 °F 32.0 °F 70% 29.78 in 7.0 mi West 8.1 mph - N/A   Clear
1:35 AM 41.0 °F 37.1 °F 32.0 °F 70% 29.79 in 7.0 mi WSW 5.8 mph - N/A   Clear
1:55 AM 41.0 °F 38.0 °F 32.0 °F 70% 29.79 in 7.0 mi WSW 4.6 mph - N/A   Clear
2:15 AM 41.0 °F 35.2 °F 32.0 °F 70% 29.81 in 7.0 mi WSW 9.2 mph - N/A   Clear
2:35 AM 39.2 °F 35.0 °F 32.0 °F 75% 29.81 in 7.0 mi WSW 5.8 mph - N/A   Clear
2:55 AM 39.2 °F 34.2 °F 32.0 °F 75% 29.82 in 7.0 mi WSW 6.9 mph - N/A   Clear
3:15 AM 39.2 °F 35.9 °F 32.0 °F 75% 29.82 in 7.0 mi West 4.6 mph - N/A   Clear
3:35 AM 39.2 °F 35.9 °F 32.0 °F 75% 29.83 in 7.0 mi WSW 4.6 mph - N/A   Clear
3:55 AM 37.4 °F 33.8 °F 32.0 °F 81% 29.82 in 7.0 mi WSW 4.6 mph - N/A   Clear
4:15 AM 37.4 °F 32.8 °F 32.0 °F 81% 29.83 in 7.0 mi WSW 5.8 mph - N/A   Clear
4:55 AM 37.4 °F 32.8 °F 32.0 °F 81% 29.84 in 7.0 mi WSW 5.8 mph - N/A   Clear
5:15 AM 37.4 °F 32.8 °F 32.0 °F 81% 29.84 in 7.0 mi WSW 5.8 mph - N/A   Clear
5:35 AM 37.4 °F 32.8 °F 32.0 °F 81% 29.86 in 7.0 mi WSW 5.8 mph - N/A   Clear
5:55 AM 37.4 °F 33.8 °F 32.0 °F 81% 29.87 in 7.0 mi WSW 4.6 mph - N/A   Clear
6:15 AM 35.6 °F 31.7 °F 32.0 °F 87% 29.89 in 7.0 mi WSW 4.6 mph - N/A   Clear
6:35 AM 35.6 °F 31.7 °F 32.0 °F 87% 29.89 in 10.0 mi WSW 4.6 mph - N/A   Clear
6:55 AM 35.6 °F 32.8 °F 32.0 °F 87% 29.91 in 7.0 mi WSW 3.5 mph - N/A   Clear
7:15 AM 35.6 °F 30.7 °F 32.0 °F 87% 29.92 in 5.0 mi SW 5.8 mph - N/A   Clear
7:35 AM 35.6 °F 30.7 °F 32.0 °F 87% 29.93 in 5.0 mi WSW 5.8 mph - N/A   Clear
7:55 AM 35.6 °F 31.7 °F 32.0 °F 87% 29.94 in 7.0 mi SW 4.6 mph - N/A   Clear
8:15 AM 37.4 °F 33.8 °F 32.0 °F 81% 29.94 in 7.0 mi WSW 4.6 mph - N/A   Clear
8:35 AM 37.4 °F 32.8 °F 32.0 °F 81% 29.95 in 5.0 mi WSW 5.8 mph - N/A   Haze
8:55 AM 39.2 °F 35.9 °F 32.0 °F 75% 29.96 in 7.0 mi West 4.6 mph - N/A   Clear
9:15 AM 41.0 °F 35.8 °F 32.0 °F 70% 29.96 in 7.0 mi West 8.1 mph - N/A   Clear
9:35 AM 42.8 °F 38.0 °F 32.0 °F 66% 29.97 in 7.0 mi West 8.1 mph - N/A   Clear
9:55 AM 42.8 °F 40.1 °F 32.0 °F 66% 29.97 in 5.0 mi West 4.6 mph - N/A   Haze
10:15 AM 44.6 °F 42.2 °F 33.8 °F 66% 29.98 in 4.0 mi WNW 4.6 mph - N/A   Haze
10:35 AM 44.6 °F 40.2 °F 33.8 °F 66% 29.98 in 7.0 mi West 8.1 mph - N/A   Clear
10:55 AM 46.4 °F 43.5 °F 33.8 °F 62% 29.98 in 7.0 mi West 5.8 mph - N/A   Clear
11:35 AM 46.4 °F 42.9 °F 33.8 °F 62% 29.97 in 7.0 mi West 6.9 mph - N/A   Clear
11:55 AM 48.2 °F - 33.8 °F 58% 29.96 in 7.0 mi WNW 4.6 mph - N/A   Clear
12:15 PM 50.0 °F - 33.8 °F 54% 29.96 in 7.0 mi WSW 6.9 mph - N/A   Clear
12:35 PM 50.0 °F - 33.8 °F 54% 29.96 in 7.0 mi West 5.8 mph - N/A   Clear
12:55 PM 50.0 °F - 33.8 °F 54% 29.96 in 7.0 mi WNW 4.6 mph - N/A   Clear
1:15 PM 50.0 °F - 33.8 °F 54% 29.96 in 7.0 mi West 6.9 mph - N/A   Clear
1:35 PM 51.8 °F - 33.8 °F 50% 29.96 in 7.0 mi West 6.9 mph - N/A   Clear
1:55 PM 51.8 °F - 33.8 °F 50% 29.96 in 7.0 mi West 3.5 mph - N/A   Clear
2:15 PM 51.8 °F - 33.8 °F 50% 29.96 in 5.0 mi WNW 5.8 mph - N/A   Haze
2:35 PM 51.8 °F - 33.8 °F 50% 29.97 in 7.0 mi West 4.6 mph - N/A   Clear
3:15 PM 51.8 °F - 35.6 °F 54% 29.96 in 10.0 mi Calm Calm - N/A   Clear
3:35 PM 51.8 °F - 35.6 °F 54% 29.96 in 7.0 mi Calm Calm - N/A   Clear
3:55 PM 51.8 °F - 35.6 °F 54% 29.97 in 7.0 mi Calm Calm - N/A   Clear
4:15 PM 51.8 °F - 37.4 °F 58% 29.97 in 7.0 mi WSW 3.5 mph - N/A   Clear
4:35 PM 50.0 °F - 37.4 °F 62% 29.97 in 7.0 mi Calm Calm - N/A   Clear
4:55 PM 48.2 °F - 37.4 °F 66% 29.98 in 7.0 mi Calm Calm - N/A   Clear
5:15 PM 46.4 °F - 39.2 °F 76% 29.99 in 7.0 mi Calm Calm - N/A   Clear
5:35 PM 42.8 °F - 39.2 °F 87% 30.00 in 10.0 mi Calm Calm - N/A   Clear
5:55 PM 42.8 °F - 41.0 °F 93% 30.00 in 7.0 mi Calm Calm - N/A   Clear
6:15 PM 41.0 °F - 41.0 °F 100% 30.01 in 7.0 mi Calm Calm - N/A   Clear
6:35 PM 41.0 °F - 41.0 °F 100% 30.02 in 10.0 mi Calm Calm - N/A   Clear
6:55 PM 39.2 °F - 39.2 °F 100% 30.04 in 7.0 mi Calm Calm - N/A   Clear
7:35 PM 37.4 °F - 37.4 °F 100% 30.04 in 7.0 mi Calm Calm - N/A   Clear
8:15 PM 37.4 °F - 37.4 °F 100% 30.05 in 7.0 mi Calm Calm - N/A   Clear
8:35 PM 37.4 °F - 37.4 °F 100% 30.05 in 7.0 mi Calm Calm - N/A   Clear
8:55 PM 37.4 °F - 37.4 °F 100% 30.05 in 7.0 mi Calm Calm - N/A   Clear
9:15 PM 37.4 °F - 37.4 °F 100% 30.06 in 7.0 mi Calm Calm - N/A   Clear
9:35 PM 35.6 °F - 35.6 °F 100% 30.06 in 7.0 mi Calm Calm - N/A   Clear
9:55 PM 35.6 °F - 35.6 °F 100% 30.06 in 7.0 mi Calm Calm - N/A   Clear
10:15 PM 35.6 °F - 35.6 °F 100% 30.06 in 7.0 mi Calm Calm - N/A   Clear
10:35 PM 35.6 °F - 35.6 °F 100% 30.07 in 5.0 mi Calm Calm - N/A   Clear
10:55 PM 33.8 °F - 33.8 °F 100% 30.06 in 5.0 mi Calm Calm - N/A   Clear
11:15 PM 33.8 °F - 33.8 °F 100% 30.07 in 7.0 mi Calm Calm - N/A   Clear
11:35 PM 33.8 °F - 33.8 °F 100% 30.07 in 5.0 mi Calm Calm - N/A   Clear
11:55 PM 33.8 °F - 33.8 °F 100% 30.06 in 5.0 mi Calm Calm - N/A   Clear